Wind_Speed
27 28 28 27 26 27 30 32 32 33 33 34 36 38 39 40 42 43 45 46 46 47 48 48 49 48 47 48 48 47 46 46 47 47 47 47 47 47 47 47 48 49 50
27 27 27 27 27 27 29 31 32 33 34 35 36 36 37 39 41 42 43 43 45 46 47 48 48 47 48 49 49 48 47 46 47 47 48 48 48 48 48 48 50 51 51
26 26 26 27 28 29 29 30 30 31 33 35 37 38 38 38 39 39 40 42 44 45 45 46 46 47 47 47 48 48 48 47 47 47 48 49 49 49 49 50 51 52 53
25 26 27 27 28 29 30 29 29 30 31 34 35 36 38 38 38 38 39 40 41 42 43 44 44 45 46 47 48 49 49 49 49 48 49 50 50 51 51 52 52 53 54
26 26 27 28 28 29 30 29 29 30 31 32 33 34 35 36 36 37 38 38 40 41 43 44 44 45 45 46 48 48 49 50 50 50 50 51 52 52 53 54 54 55 55
27 27 28 28 29 30 31 30 31 31 32 33 33 33 34 35 36 37 38 39 40 41 43 45 45 44 45 46 47 48 49 50 51 51 52 52 53 54 55 56 56 56 56
27 27 28 28 28 29 30 30 31 31 31 32 33 34 35 36 37 38 39 39 40 42 43 43 44 44 45 46 48 49 50 51 52 52 53 53 54 55 57 57 57 57 58
27 27 27 27 27 28 29 30 31 31 31 32 33 34 35 37 38 39 39 39 39 40 41 43 44 44 45 46 48 49 50 51 51 52 53 53 55 56 56 57 58 58 59
28 28 28 28 28 29 29 30 30 30 31 32 33 33 34 35 37 37 38 38 39 39 40 41 42 43 45 46 48 49 49 50 51 52 53 53 54 55 56 58 58 59 59
29 28 27 28 29 29 29 30 31 31 32 33 33 33 33 34 35 36 37 37 38 39 41 43 44 45 46 47 47 48 48 49 51 52 53 54 54 55 56 57 58 59 59
29 29 28 28 28 29 29 29 30 30 30 31 32 32 33 33 35 36 37 37 38 40 41 42 43 44 46 47 47 48 49 50 51 52 53 54 54 55 56 57 58 58 58
30 30 29 29 29 29 30 30 30 30 29 30 30 31 33 34 35 36 37 38 39 40 41 42 43 43 44 46 47 48 49 50 51 51 52 53 54 55 56 56 57 58 58
30 30 31 31 30 30 30 30 30 30 31 31 31 32 33 35 36 37 38 39 40 40 41 42 42 43 44 45 46 47 48 49 50 51 51 52 53 55 55 56 57 57 56
31 31 31 32 32 31 31 31 31 32 32 33 33 33 33 35 36 37 37 38 39 39 40 41 41 42 42 43 44 45 46 47 49 50 50 51 52 53 54 54 54 53 52
32 33 33 33 33 33 33 32 32 33 34 34 34 35 35 36 36 37 38 38 38 38 39 40 40 41 42 43 44 44 45 46 47 48 49 50 51 51 51 50 50 49 49
33 34 34 34 34 34 34 34 34 35 35 36 36 37 37 37 37 38 38 38 38 39 39 39 40 41 42 42 43 44 44 45 47 47 48 49 49 48 47 46 46 46 46
34 34 34 34 34 35 35 36 35 36 37 37 37 37 37 38 38 38 38 38 38 38 39 39 40 40 41 42 43 43 44 45 46 47 47 46 46 45 44 43 43 43 43
33 34 35 35 35 35 35 36 36 37 36 37 37 38 38 38 38 38 37 37 38 38 38 39 40 41 42 42 42 43 44 45 45 45 45 45 44 43 42 42 42 41 41
34 35 35 35 35 35 35 35 36 36 36 37 37 38 38 38 38 38 38 38 38 38 39 40 40 41 41 42 42 43 43 43 43 43 43 42 41 41 41 40 40 39 39
35 35 35 35 36 35 35 35 35 36 36 36 37 37 37 37 37 38 38 39 39 40 40 40 41 41 41 41 41 41 41 41 41 41 40 40 40 39 38 38 37 37 37
35 35 35 35 35 35 35 35 36 36 36 37 37 37 37 37 37 38 38 39 39 40 40 40 40 40 40 39 39 39 39 39 39 39 38 38 38 37 36 35 35 35 35
34 34 34 34 35 35 36 36 37 37 37 37 37 37 37 37 38 38 38 38 38 39 39 39 39 39 39 38 38 38 38 38 38 37 37 36 36 34 34 35 35 34 34
34 34 34 35 35 36 37 37 37 37 37 37 37 37 37 38 38 38 39 39 39 38 38 38 38 38 38 37 37 37 36 36 36 36 35 34 33 33 34 34 34 33 33
34 34 35 35 36 36 37 37 38 38 37 37 37 38 38 38 39 39 39 39 39 38 38 37 37 36 36 36 36 35 35 35 35 34 33 33 33 33 32 32 32 32 32
34 35 35 35 36 37 37 37 37 37 37 37 38 38 38 38 38 38 38 38 38 37 37 36 35 35 34 34 34 34 33 33 32 31 31 31 31 31 31 30 30 30 29
35 35 36 36 36 36 36 36 36 36 37 37 37 37 37 37 37 37 37 37 36 36 35 34 33 33 33 33 33 32 31 30 30 30 30 30 30 30 29 28 28 28 27
Wind_Direction
271 268 266 264 263 261 258 255 254 253 252 250 247 245 245 246 245 246 247 248 248 249 250 251 252 254 255 255 256 257 259 262 264 265 266 268 270 272 273 275 277 280 282
273 269 266 264 262 262 260 256 254 253 252 251 249 247 247 247 247 249 247 248 249 250 251 252 253 255 256 257 257 259 260 263 264 265 267 268 270 272 273 274 277 280 282
274 271 267 264 262 262 261 258 255 254 253 252 252 250 250 249 250 250 249 249 249 250 251 252 253 256 257 258 259 260 260 263 265 266 267 268 270 272 273 275 277 280 281
273 270 268 267 266 264 262 260 258 255 254 254 253 252 252 252 252 251 251 251 251 251 252 253 256 257 258 259 259 259 260 262 264 266 267 269 270 273 275 276 277 279 280
271 270 269 268 268 265 263 261 259 258 256 256 255 254 253 253 253 251 251 252 253 253 254 256 258 258 259 260 260 261 261 262 264 267 269 270 271 273 275 276 278 279 281
270 269 269 270 270 267 263 262 261 260 259 256 256 257 256 255 255 252 252 254 255 257 258 259 259 260 260 261 261 263 264 265 267 269 270 271 273 274 275 277 279 279 281
272 271 271 270 269 266 264 262 262 260 258 257 258 258 258 258 256 255 254 257 258 258 260 260 261 263 263 263 264 265 267 268 269 270 271 272 274 276 277 278 279 280 281
273 273 271 270 269 265 265 265 263 261 259 259 259 259 258 258 257 256 256 258 259 259 260 261 262 263 265 266 266 267 268 269 270 271 272 273 274 276 277 278 279 280 281
274 274 272 271 269 268 268 267 265 263 261 261 260 260 260 260 258 258 259 261 261 260 261 263 264 265 266 267 268 268 269 270 270 272 274 275 276 277 278 279 280 280 281
273 274 275 273 273 272 271 268 266 265 265 264 263 263 263 262 261 261 262 263 262 262 263 265 266 267 268 269 269 270 271 272 272 273 275 277 278 279 280 282 282 282 282
271 272 274 275 275 274 272 272 270 268 267 267 266 265 265 264 263 262 263 265 266 266 266 267 268 270 270 270 271 271 272 273 274 275 277 278 280 281 282 282 283 284 284
271 272 274 276 276 276 273 272 272 270 270 269 269 267 267 268 267 267 267 268 269 270 269 270 270 272 272 273 273 273 273 274 275 276 278 279 280 281 282 283 284 284 285
272 273 275 276 276 275 274 273 272 270 271 272 272 271 270 271 271 271 271 272 272 272 272 272 272 273 273 274 274 275 276 276 277 278 279 280 281 282 282 283 284 285 285
271 272 274 275 275 275 274 273 272 271 272 272 272 272 272 272 273 274 274 273 272 273 272 272 273 273 273 273 274 276 278 279 279 279 280 281 282 284 285 285 285 285 285
271 272 273 274 274 274 273 272 272 272 271 272 273 273 274 274 275 275 275 273 272 273 273 273 273 273 274 275 276 277 278 279 281 282 282 282 283 285 286 286 285 284 284
271 272 273 273 273 273 273 273 274 273 273 273 274 275 276 276 276 276 275 274 273 274 274 275 275 274 275 277 278 279 279 280 281 283 284 285 285 286 286 286 286 285 285
271 272 273 273 274 274 274 274 274 274 274 274 274 275 276 277 277 277 277 276 275 275 276 276 276 276 277 278 278 279 280 281 283 284 284 285 285 286 286 286 286 287 286
271 272 273 274 275 276 275 274 274 273 273 273 274 275 276 277 278 278 278 277 277 277 277 278 278 278 279 279 279 279 280 282 283 284 284 285 285 286 286 286 286 286 286
272 273 274 275 275 275 275 275 274 273 273 273 274 275 276 277 277 278 278 278 278 278 278 279 280 280 279 280 280 281 281 282 283 284 284 285 285 285 284 284 285 285 285
272 273 274 274 274 274 275 275 275 275 275 275 276 276 276 276 276 277 278 278 279 279 279 279 280 280 279 279 280 281 282 282 283 284 284 284 284 283 282 283 283 284 285
272 272 272 273 274 274 275 275 276 277 278 278 278 277 277 277 277 278 278 279 279 280 279 279 279 280 280 280 281 282 282 283 283 283 284 284 283 282 281 282 283 284 285
272 271 272 273 274 275 276 277 277 278 278 278 278 278 278 279 279 280 280 280 281 281 280 279 280 280 281 281 281 282 283 284 284 284 284 284 283 282 281 283 283 283 284
271 272 272 274 275 276 277 278 278 279 279 279 279 279 279 279 280 281 282 282 282 282 282 282 281 281 281 281 281 283 284 284 285 284 284 284 283 282 282 282 282 282 284
272 273 274 275 277 278 279 279 279 279 279 279 279 279 279 279 280 281 281 281 281 281 281 281 282 282 282 282 282 281 282 283 283 282 282 282 282 282 282 282 282 283 284
274 275 276 278 279 279 280 280 280 280 280 279 279 279 279 279 280 280 280 280 280 280 280 280 281 282 282 282 282 282 282 281 281 281 281 282 283 282 281 281 283 284 284
277 277 278 279 280 281 281 282 281 281 281 280 280 279 279 279 280 280 280 280 280 280 280 279 280 281 282 282 281 281 281 281 281 281 281 282 283 282 281 281 282 283 283
Height
5623 5623 5623 5623 5624 5625 5626 5628 5630 5631 5633 5636 5638 5641 5644 5647 5651 5654 5658 5661 5664 5667 5670 5674 5677 5679 5682 5685 5687 5689 5691 5692 5694 5695 5695 5695 5696 5696 5695 5695 5694 5692 5691
5616 5616 5616 5616 5616 5617 5618 5620 5622 5624 5625 5627 5629 5632 5635 5638 5641 5644 5646 5649 5653 5656 5659 5662 5665 5668 5670 5672 5674 5676 5678 5679 5681 5682 5682 5682 5683 5682 5682 5681 5680 5679 5677
5609 5609 5609 5609 5609 5610 5611 5612 5614 5616 5617 5619 5621 5623 5626 5628 5631 5633 5636 5639 5642 5645 5648 5651 5653 5656 5658 5660 5661 5663 5665 5666 5667 5668 5669 5669 5669 5669 5668 5668 5666 5665 5663
5603 5603 5602 5602 5602 5603 5603 5604 5606 5607 5609 5611 5613 5614 5617 5619 5621 5623 5626 5628 5631 5633 5636 5639 5641 5643 5646 5647 5649 5650 5652 5653 5654 5655 5656 5656 5656 5655 5654 5654 5653 5651 5649
5597 5596 5596 5596 5595 5596 5596 5597 5598 5599 5600 5602 5604 5605 5607 5609 5611 5613 5616 5618 5621 5623 5625 5628 5630 5631 5633 5635 5637 5638 5639 5640 5641 5641 5642 5642 5642 5641 5640 5640 5638 5636 5634
5590 5589 5589 5589 5589 5589 5589 5589 5590 5591 5592 5593 5595 5596 5597 5599 5601 5603 5606 5608 5610 5613 5615 5617 5618 5619 5621 5623 5624 5625 5626 5627 5627 5627 5628 5628 5627 5626 5626 5624 5623 5622 5620
5582 5582 5581 5581 5581 5581 5581 5581 5582 5582 5583 5584 5586 5587 5588 5589 5591 5593 5595 5597 5600 5602 5603 5605 5607 5608 5609 5610 5611 5612 5612 5612 5612 5613 5613 5613 5612 5612 5610 5609 5607 5605 5603
5575 5574 5574 5573 5573 5573 5574 5574 5574 5574 5575 5575 5576 5577 5578 5580 5581 5583 5585 5586 5588 5590 5592 5593 5595 5596 5596 5597 5598 5599 5599 5599 5598 5599 5599 5598 5597 5595 5594 5592 5590 5589 5587
5567 5566 5566 5566 5566 5565 5565 5565 5565 5566 5566 5567 5567 5568 5569 5569 5571 5573 5574 5576 5577 5579 5580 5582 5583 5583 5584 5584 5585 5586 5586 5585 5584 5584 5583 5582 5581 5580 5578 5576 5574 5572 5571
5559 5559 5558 5558 5557 5557 5557 5557 5557 5557 5558 5558 5558 5559 5559 5560 5561 5563 5564 5565 5567 5568 5569 5570 5571 5571 5571 5571 5571 5571 5572 5571 5571 5570 5569 5568 5566 5565 5563 5561 5559 5556 5554
5551 5551 5550 5550 5549 5549 5549 5549 5549 5549 5549 5549 5549 5550 5550 5551 5552 5552 5553 5554 5555 5556 5557 5558 5558 5558 5558 5558 5557 5558 5558 5557 5557 5556 5555 5553 5552 5550 5548 5546 5543 5540 5538
5542 5542 5542 5541 5541 5540 5540 5540 5539 5539 5540 5540 5540 5541 5541 5541 5541 5542 5542 5543 5544 5544 5545 5545 5545 5545 5545 5544 5544 5543 5543 5542 5542 5541 5540 5538 5537 5535 5532 5530 5527 5524 5521
5533 5533 5533 5532 5531 5531 5530 5530 5530 5530 5530 5530 5531 5531 5531 5531 5531 5531 5532 5532 5532 5532 5533 5533 5533 5532 5532 5531 5530 5529 5529 5528 5527 5526 5525 5524 5522 5519 5517 5514 5511 5508 5505
5525 5524 5524 5523 5522 5522 5521 5521 5521 5521 5521 5521 5521 5521 5521 5521 5520 5520 5520 5520 5520 5520 5520 5520 5520 5519 5519 5518 5517 5516 5515 5514 5513 5512 5510 5509 5506 5504 5501 5498 5496 5493 5490
5515 5515 5514 5514 5513 5512 5512 5511 5511 5511 5510 5511 5511 5511 5511 5511 5510 5509 5509 5509 5509 5508 5508 5508 5507 5507 5506 5505 5504 5503 5502 5501 5499 5498 5496 5494 5492 5489 5486 5483 5481 5478 5476
5506 5505 5504 5504 5503 5503 5502 5502 5501 5501 5500 5500 5500 5500 5500 5499 5499 5498 5497 5497 5497 5496 5496 5495 5495 5494 5493 5492 5491 5490 5489 5487 5486 5484 5482 5480 5478 5475 5472 5469 5467 5465 5462
5495 5495 5494 5494 5493 5492 5492 5492 5491 5491 5490 5489 5489 5488 5488 5488 5487 5486 5486 5485 5485 5484 5483 5483 5482 5481 5480 5479 5478 5477 5475 5474 5472 5470 5468 5466 5464 5461 5459 5457 5454 5452 5450
5485 5484 5484 5483 5483 5482 5481 5481 5480 5480 5480 5479 5478 5477 5477 5476 5476 5475 5474 5473 5473 5472 5471 5471 5470 5469 5467 5466 5465 5463 5462 5460 5458 5456 5454 5452 5450 5448 5446 5444 5442 5440 5438
5475 5474 5474 5473 5472 5471 5471 5470 5469 5469 5469 5468 5468 5467 5465 5465 5464 5463 5462 5462 5461 5460 5459 5458 5457 5456 5454 5453 5452 5450 5448 5447 5445 5443 5441 5439 5437 5435 5434 5432 5430 5428 5426
5464 5464 5463 5462 5462 5461 5460 5459 5459 5458 5457 5457 5456 5455 5454 5454 5453 5452 5451 5450 5449 5448 5447 5446 5444 5443 5441 5440 5439 5437 5436 5434 5432 5430 5428 5427 5425 5423 5422 5420 5419 5417 5415
5453 5453 5452 5452 5451 5450 5449 5449 5448 5447 5446 5445 5445 5443 5443 5442 5442 5441 5440 5438 5437 5436 5435 5433 5432 5430 5429 5427 5426 5425 5423 5421 5420 5418 5417 5415 5413 5412 5410 5409 5408 5406 5404
5442 5442 5442 5441 5440 5440 5439 5438 5437 5436 5435 5434 5433 5432 5431 5430 5430 5429 5427 5426 5425 5424 5422 5421 5419 5418 5416 5415 5414 5413 5411 5410 5408 5407 5405 5404 5402 5401 5400 5398 5397 5396 5394
5432 5432 5431 5430 5430 5429 5428 5427 5426 5425 5424 5422 5421 5420 5419 5418 5417 5416 5415 5414 5412 5411 5410 5408 5407 5406 5404 5403 5402 5401 5400 5399 5397 5396 5394 5393 5391 5390 5389 5388 5387 5385 5384
5422 5421 5420 5420 5419 5418 5417 5416 5414 5413 5412 5411 5410 5409 5408 5406 5405 5404 5403 5401 5400 5399 5398 5397 5396 5394 5393 5392 5391 5390 5389 5387 5386 5385 5384 5382 5381 5380 5379 5378 5377 5375 5374
5411 5410 5410 5409 5407 5406 5405 5404 5403 5401 5400 5399 5397 5396 5395 5394 5393 5392 5391 5390 5388 5387 5386 5385 5384 5383 5382 5381 5380 5379 5378 5377 5376 5375 5374 5373 5371 5370 5369 5368 5367 5366 5365
5400 5399 5398 5397 5396 5395 5393 5392 5391 5389 5388 5386 5385 5384 5383 5382 5381 5380 5379 5378 5377 5376 5375 5374 5373 5372 5371 5370 5369 5369 5368 5367 5366 5365 5364 5363 5362 5361 5360 5359 5359 5357 5356